Theta_e
350 349 350 351 352 353 354 354 354 356 357 357 358 358 360 359 360 359 360 361 362 363 361 362 359 352 348 346 347 350 352 355 354 355 357 358 358 358 359 359 358 358 358 359 360 359 358 358 359 357 358 357 353 352 353 354 351 345 347 351 350 354 351 351 351 352 349 347 348 346 347 350 351 353 352 351 351 353 353 355 355 354 356 357 359
348 348 348 349 351 352 353 354 355 353 356 357 358 359 360 360 359 360 360 360 361 361 364 361 357 355 350 349 351 351 351 351 352 354 354 354 357 358 358 358 358 357 357 358 356 357 357 356 356 357 356 356 355 353 352 351 347 344 345 347 352 346 350 351 351 349 343 340 341 342 343 347 350 351 349 349 349 350 351 353 354 353 351 354 356
347 348 348 349 350 351 353 353 354 355 356 356 358 358 359 359 360 358 359 360 362 362 361 355 359 351 349 352 352 353 356 354 354 355 355 354 355 356 355 356 356 356 356 356 355 355 355 355 355 356 356 357 351 348 346 344 345 346 347 348 345 346 347 353 352 350 344 345 344 342 337 337 345 348 349 348 348 348 350 349 351 351 352 353 354
345 347 347 348 350 351 352 353 354 354 354 355 356 357 358 358 359 358 357 360 363 363 362 362 359 358 356 356 357 355 354 355 355 355 354 355 356 358 356 357 357 356 355 354 355 356 357 355 355 356 357 356 348 346 344 343 345 346 349 350 344 342 345 346 351 350 347 346 337 337 338 336 331 337 342 348 347 346 346 347 350 351 353 355 354
346 347 349 349 350 350 352 353 354 353 354 354 354 356 356 358 358 359 359 359 360 359 359 358 358 355 355 354 354 352 353 351 349 351 354 356 354 356 355 356 356 356 355 355 355 355 354 354 355 355 357 351 345 344 344 345 346 348 349 348 343 342 343 346 349 349 348 349 343 339 336 333 332 336 338 341 346 343 344 346 349 352 352 354 354
347 348 348 350 351 353 353 355 354 354 354 355 355 354 358 355 353 357 358 359 358 357 356 356 354 353 351 349 346 346 344 346 346 347 347 349 348 352 354 355 354 354 355 354 354 353 353 352 353 352 354 349 344 343 343 344 346 348 349 346 344 345 344 346 343 350 349 348 349 347 345 336 336 340 337 331 350 344 348 349 349 349 353 354 355
346 347 348 348 350 351 352 353 355 352 353 353 354 355 355 355 356 357 356 355 358 357 356 355 352 351 350 350 349 347 345 346 349 349 349 350 351 349 350 351 351 350 351 352 351 351 351 349 350 351 351 351 346 345 345 344 346 348 348 344 340 343 343 340 343 344 343 344 344 345 346 345 342 338 332 337 335 343 345 344 345 348 350 352 353
344 345 347 349 350 350 350 352 353 349 347 349 350 353 354 354 354 354 353 353 355 356 356 356 352 351 349 348 347 346 344 344 347 347 348 348 346 346 347 347 348 348 348 348 349 349 350 349 348 349 349 348 349 345 344 346 347 348 346 342 343 343 342 339 340 344 339 340 344 343 343 343 344 344 343 337 337 331 337 345 346 344 348 349 350
344 343 344 345 346 346 349 348 347 345 345 347 349 350 351 352 351 350 350 350 351 352 351 351 350 348 347 347 345 344 346 346 345 346 345 346 344 344 344 344 345 346 346 347 347 347 348 348 347 348 348 348 350 347 345 346 347 346 343 342 341 342 341 342 342 343 344 341 342 344 343 343 344 344 341 344 337 335 333 336 339 345 347 347 348
344 343 344 344 343 342 342 344 342 343 347 350 349 349 348 348 348 349 347 348 350 352 351 350 349 349 346 346 343 345 346 344 344 343 344 345 342 343 343 344 344 345 346 345 344 346 346 347 347 348 350 349 349 346 344 343 343 343 344 344 342 339 340 342 341 344 345 345 345 346 344 341 338 338 334 339 338 339 333 335 339 340 340 345 350
343 342 342 342 340 339 339 339 343 345 348 348 346 346 345 346 347 345 345 347 349 348 348 347 348 347 346 344 344 344 343 342 340 341 343 343 342 342 342 342 343 344 344 345 345 346 346 347 347 349 349 348 347 346 344 344 343 342 343 344 343 339 339 340 342 343 341 340 342 345 341 334 333 332 336 338 336 334 336 334 337 339 339 340 347
343 341 340 339 338 337 339 340 342 346 347 346 344 344 343 344 346 343 343 345 346 347 348 349 349 349 348 347 346 346 344 342 341 340 340 338 339 339 340 340 342 343 343 343 344 344 344 344 346 347 347 346 345 346 347 346 344 344 344 344 343 340 341 339 340 339 337 339 342 344 340 337 336 336 338 343 341 340 337 336 337 341 342 342 346
342 341 340 337 335 335 337 341 344 345 345 345 345 342 343 344 345 344 342 345 345 346 345 345 346 347 347 346 346 347 346 344 341 340 340 338 339 339 339 338 340 339 341 342 343 343 343 344 344 344 344 345 346 347 347 347 345 345 345 342 342 339 339 337 336 339 340 340 340 343 341 340 337 340 338 344 344 344 343 337 337 339 336 338 344
342 341 339 338 338 336 339 341 343 345 345 345 345 343 343 342 343 341 342 344 343 345 345 343 345 347 348 347 346 345 345 343 342 341 341 340 339 339 339 337 337 338 339 340 340 342 343 343 345 345 345 345 346 347 348 349 349 348 346 344 343 345 344 339 338 341 342 342 342 343 341 337 340 340 338 347 344 339 340 337 337 339 339 337 341
342 340 338 337 337 338 338 341 343 344 343 342 344 344 344 342 342 341 341 341 341 341 343 340 344 347 348 349 348 346 345 345 344 342 340 338 338 338 338 339 338 339 339 340 342 342 343 344 345 346 346 346 347 347 346 347 348 348 345 346 348 349 346 345 342 342 342 341 342 343 342 342 342 344 347 348 346 343 340 339 338 333 334 336 336
340 340 338 338 338 339 338 340 342 342 343 343 344 345 342 342 342 341 340 340 341 341 340 343 343 347 346 346 347 346 346 345 345 344 341 338 338 338 337 338 339 339 339 340 341 342 342 342 343 344 344 345 345 345 346 345 345 345 345 346 345 345 345 345 341 345 344 343 342 343 343 340 344 344 347 347 346 345 344 343 341 338 332 328 333
339 338 337 337 338 339 338 340 340 340 340 341 344 345 344 342 341 341 341 341 341 341 341 343 345 344 344 344 345 345 344 342 341 341 341 340 338 338 338 338 339 340 338 340 340 342 343 342 342 342 343 343 342 342 342 343 343 342 342 343 343 344 344 345 346 343 344 343 344 343 341 342 342 345 341 343 348 347 344 344 343 339 337 332 329
339 339 339 338 337 338 337 338 340 340 340 343 346 347 346 344 342 340 340 340 340 340 341 342 343 343 343 343 344 344 343 342 341 340 342 341 341 340 340 339 339 339 339 339 341 340 341 341 341 342 343 343 343 342 341 341 340 339 340 340 340 342 341 342 345 345 344 342 343 341 341 341 343 346 346 346 345 346 346 346 344 343 342 336 333
336 336 336 336 336 337 337 336 338 341 344 345 345 345 344 342 343 341 339 340 340 341 342 343 344 343 343 343 343 343 342 342 341 342 342 340 339 339 339 339 340 341 340 340 340 339 340 340 343 342 342 343 343 341 341 340 340 339 338 338 340 341 340 339 342 342 342 343 342 340 341 340 341 344 344 345 344 343 344 346 345 345 342 341 337
335 335 335 335 335 335 335 335 336 340 341 341 339 340 339 340 341 341 341 342 341 341 343 342 345 343 343 343 343 342 341 341 341 341 340 339 339 338 338 339 341 340 340 340 340 339 340 341 341 341 341 341 340 340 340 339 338 338 337 337 338 339 338 338 339 341 341 341 341 340 342 343 343 342 342 343 344 345 345 344 344 344 344 344 341
334 335 335 335 335 334 334 335 338 340 341 338 337 338 338 338 338 339 340 340 338 339 340 340 343 343 343 342 341 341 341 340 340 340 341 340 340 340 339 340 341 340 340 339 339 341 342 341 341 341 340 340 340 339 339 339 338 337 337 337 337 337 337 337 339 338 339 340 340 340 340 342 343 342 340 341 342 345 345 344 343 344 344 345 342
335 334 334 334 335 334 334 335 338 338 335 335 337 338 337 336 336 337 336 336 335 338 339 340 341 341 341 340 340 340 340 340 340 342 341 341 340 339 340 340 339 341 342 340 340 341 341 340 339 340 340 340 340 340 339 338 336 335 335 335 336 335 335 335 337 337 338 337 338 339 339 338 342 341 340 340 341 343 344 342 341 342 343 340 346
333 334 334 334 335 334 335 337 337 337 339 340 340 337 337 337 337 337 336 336 335 335 339 341 339 340 340 341 340 339 339 341 341 342 340 339 338 339 340 339 339 339 341 341 340 341 341 340 339 339 340 340 341 340 340 338 335 334 334 334 334 334 333 332 333 334 335 337 337 336 337 338 337 337 339 340 342 343 343 342 342 342 338 340 342
333 334 334 335 334 335 336 337 338 338 339 340 340 340 339 338 337 337 336 337 337 336 336 338 339 338 340 340 339 339 339 339 337 340 340 339 338 339 341 340 340 340 340 341 342 341 340 340 339 340 340 339 338 337 338 339 337 335 333 333 333 333 332 332 331 332 332 334 336 336 337 337 337 337 338 341 343 342 341 342 341 341 340 340 342
332 333 334 333 331 332 334 337 338 339 339 341 341 341 339 340 339 337 337 336 337 338 336 337 338 336 337 339 338 338 337 337 338 336 337 337 337 337 339 340 340 340 340 340 340 341 339 340 339 339 338 336 334 335 335 335 334 335 334 332 332 331 331 331 331 331 330 333 333 335 336 335 335 331 335 339 342 341 340 341 340 337 339 340 340
332 333 332 331 332 335 336 337 338 339 340 341 341 341 341 341 340 339 337 338 337 337 335 335 334 335 337 336 337 338 337 337 337 337 338 339 341 342 341 339 340 338 339 340 340 340 340 340 340 340 338 337 336 336 337 335 335 335 333 332 331 330 329 329 330 331 333 334 334 333 334 336 338 334 335 339 341 340 340 339 337 338 339 340 339
331 332 332 333 333 334 336 337 337 339 340 340 340 340 340 341 341 340 339 338 339 339 339 336 335 334 337 336 336 337 338 336 338 339 340 339 340 339 337 337 338 338 338 338 340 340 340 340 340 340 339 339 339 339 338 336 335 334 333 332 331 329 329 329 329 329 330 331 334 335 336 336 335 335 337 339 339 340 340 339 340 337 339 338 338
332 331 331 331 332 334 335 337 337 339 340 339 340 340 341 341 340 340 339 337 338 339 338 336 335 336 337 335 336 338 339 339 339 340 341 342 342 342 341 341 340 338 338 339 339 340 340 340 340 340 339 339 339 339 338 336 334 334 332 332 330 328 328 328 328 328 328 329 330 333 335 337 337 337 337 339 339 339 339 336 336 340 339 339 339
329 330 331 332 332 333 335 336 337 339 338 338 338 339 340 341 340 341 339 338 340 339 338 336 336 336 336 337 338 339 339 339 339 340 340 341 341 341 341 340 340 340 340 340 340 339 339 340 340 340 340 339 338 338 338 335 333 332 333 331 330 328 327 327 327 327 328 328 329 331 333 336 338 332 326 327 329 329 340 339 342 343 341 341 340
328 329 330 332 333 335 336 337 338 338 338 337 338 339 339 339 338 338 339 339 340 338 336 335 335 335 336 338 338 339 339 340 340 340 340 340 339 339 339 338 339 339 340 340 341 340 339 338 338 339 340 340 339 339 333 323 323 331 332 330 328 328 328 327 327 327 327 327 328 330 332 329 327 324 324 321 320 320 321 333 339 340 339 339 338
328 330 331 332 333 335 336 336 337 338 338 338 339 339 340 338 337 337 339 340 339 336 336 335 334 336 337 338 338 339 339 339 340 340 340 339 338 338 338 339 340 340 340 341 340 339 338 338 337 338 338 339 338 338 327 321 324 325 330 330 328 327 327 326 326 326 324 324 325 329 331 330 330 328 332 320 319 318 319 319 320 324 327 339 339
328 330 331 332 332 334 335 336 337 339 339 339 338 339 340 338 338 338 337 338 337 335 333 334 334 336 337 337 338 339 339 339 340 340 339 338 336 336 338 339 339 340 341 341 340 339 338 338 337 338 338 339 339 332 323 321 324 323 324 328 328 327 326 325 324 323 323 323 323 325 330 333 334 335 337 338 329 319 318 319 319 320 322 322 326
330 331 331 331 332 334 336 337 339 339 338 339 340 339 338 340 340 340 340 337 335 334 335 334 335 336 336 338 338 337 337 338 339 339 337 336 336 336 337 338 338 339 340 340 339 338 338 338 338 338 338 339 339 331 323 320 321 321 322 324 328 328 326 325 323 322 322 322 323 323 324 328 332 325 334 337 339 339 320 316 318 318 318 320 323
330 331 331 332 334 335 336 338 340 340 338 340 341 340 340 341 341 340 337 337 336 336 335 333 334 335 337 338 337 337 336 338 338 337 336 335 336 337 337 338 338 340 339 339 339 339 339 339 339 339 339 339 340 331 322 319 316 316 318 322 329 327 325 324 323 323 324 324 322 322 323 324 326 328 331 333 336 339 340 335 329 330 333 328 318
330 331 332 334 335 336 337 337 337 337 338 338 339 339 340 339 338 336 336 335 335 335 334 334 334 335 337 336 336 336 336 337 337 336 335 336 336 337 337 338 338 338 337 337 337 336 337 337 338 339 338 338 339 326 320 316 314 312 313 320 330 327 326 325 325 324 323 322 321 322 322 321 322 323 325 320 318 324 334 337 336 332 333 335 335
331 332 333 335 335 336 336 337 338 337 336 336 337 338 336 337 338 336 336 335 335 334 333 334 334 335 335 336 336 335 337 337 335 335 336 336 337 338 337 338 337 336 338 338 338 338 337 336 337 338 337 336 336 325 319 317 313 312 313 328 329 326 324 324 323 323 324 324 323 323 321 319 320 321 317 311 312 317 324 331 336 337 335 335 336
333 334 335 338 338 338 338 339 338 336 336 336 336 336 336 337 336 335 335 334 333 333 333 334 334 335 336 337 336 335 336 336 335 335 335 334 334 335 336 338 336 335 335 336 336 335 337 336 336 336 336 335 334 330 319 313 312 311 315 330 329 326 323 323 322 324 325 325 324 323 322 321 319 320 314 310 312 311 320 327 331 333 334 335 335
333 335 335 337 337 337 337 336 335 335 336 337 337 336 336 336 336 335 334 333 333 332 334 335 335 336 337 338 337 336 335 335 336 334 332 332 333 336 336 337 334 332 331 332 333 334 337 338 336 334 332 331 331 329 317 311 311 313 312 327 328 325 322 322 323 324 324 324 324 323 323 322 319 317 311 310 311 314 322 327 329 331 333 334 336
331 331 332 334 335 336 334 335 335 334 336 337 337 336 335 335 336 334 333 333 334 335 335 335 336 337 338 337 336 336 335 335 335 334 333 332 333 334 334 335 333 332 332 335 335 335 335 335 332 333 332 330 331 328 319 313 312 313 319 328 328 325 321 322 323 323 325 324 323 323 322 319 315 312 308 309 309 311 320 325 328 330 331 332 335
331 332 334 336 336 335 334 333 333 335 337 337 336 335 334 335 334 334 333 334 335 336 339 338 337 336 336 336 336 336 337 336 336 336 336 334 334 333 332 330 332 331 330 330 333 333 333 332 332 334 332 332 332 333 334 317 313 312 311 322 327 325 323 323 323 323 324 324 324 323 322 315 311 308 307 306 306 308 316 322 322 324 329 332 338
328 329 332 332 333 333 334 335 336 337 337 335 334 334 334 336 337 336 335 335 337 339 338 336 336 335 335 336 337 337 337 338 338 336 334 333 334 332 331 332 329 329 330 332 331 331 330 332 332 333 332 332 331 330 333 321 315 312 312 313 326 326 326 325 323 324 324 323 323 323 323 317 310 307 306 305 305 307 310 321 319 317 318 321 329
331 333 334 332 331 333 334 334 337 336 334 334 335 334 335 337 336 335 337 338 340 338 337 336 336 337 336 336 337 338 339 338 339 336 335 334 334 333 331 331 329 330 331 331 332 331 330 331 332 333 333 333 333 329 332 326 317 311 309 309 318 326 326 325 323 324 325 325 324 323 323 318 310 307 305 304 305 308 311 320 315 308 310 315 329
329 330 332 332 332 331 331 333 333 332 333 333 333 334 336 336 335 337 339 340 338 336 336 336 336 335 336 337 338 339 338 338 337 336 334 332 332 332 333 333 332 330 330 329 329 329 328 327 328 330 333 334 334 333 325 330 319 311 306 307 308 313 314 320 325 325 326 326 326 324 323 316 308 303 303 305 307 309 312 314 306 309 312 316 327
329 328 331 332 333 334 333 333 330 332 333 333 334 334 335 335 335 339 339 337 335 335 335 335 336 337 337 338 337 338 339 338 336 335 332 332 331 331 332 333 331 329 327 326 327 328 327 325 324 325 329 331 334 333 329 322 323 313 307 304 305 306 308 320 324 326 327 327 325 324 319 308 303 300 303 307 310 311 315 306 308 312 315 318 326
329 327 330 330 331 334 334 332 332 333 334 335 334 334 335 334 337 339 336 335 334 335 336 335 336 336 338 337 336 336 337 335 332 333 330 329 328 330 329 332 331 328 327 326 326 326 326 325 325 326 327 329 330 332 333 328 320 316 311 308 308 309 311 310 324 329 328 326 316 308 305 305 306 306 308 312 316 315 312 311 311 314 320 323 323
328 329 329 329 330 330 331 331 333 333 333 334 334 334 334 336 338 336 336 335 335 335 334 334 335 336 335 334 333 334 336 333 331 331 331 331 328 327 327 329 328 327 327 326 325 324 323 324 324 323 325 326 328 331 331 329 323 320 317 312 310 312 314 313 316 324 317 314 312 311 311 313 315 318 323 326 324 324 317 317 317 319 325 324 323
330 330 329 329 329 328 329 330 330 332 331 330 332 332 334 336 335 334 334 335 334 333 332 334 335 334 334 333 332 331 331 328 329 329 329 328 328 328 328 327 327 325 325 324 323 323 322 322 322 322 324 325 326 327 326 321 318 317 317 316 317 320 316 316 324 327 320 324 325 323 323 315 314 316 319 320 320 323 326 325 325 325 325 325 323
327 327 328 329 329 330 329 330 330 332 330 329 329 331 331 332 330 330 330 332 331 332 332 333 332 332 331 332 332 331 330 325 325 325 323 325 326 326 326 326 324 324 323 322 322 322 320 320 319 320 321 322 323 323 319 312 309 308 308 310 311 315 317 317 320 320 317 321 326 321 323 331 330 329 329 329 329 328 327 327 327 326 326 326 326
327 327 328 328 330 329 331 331 330 329 328 328 328 327 328 330 330 330 332 332 333 333 332 332 330 329 328 332 332 331 330 326 326 329 329 330 327 326 327 323 320 320 320 321 322 318 317 317 319 319 317 318 319 316 313 304 303 298 300 305 308 309 308 309 309 304 309 322 329 327 325 324 324 325 325 326 326 326 327 327 326 326 327 326 324
326 325 327 329 329 329 329 329 329 327 328 328 328 329 329 328 330 332 333 333 333 331 329 326 326 325 323 324 327 326 327 327 323 325 326 326 312 302 316 323 315 306 302 300 302 312 310 312 315 316 314 311 310 309 302 296 294 293 293 293 294 293 293 299 300 301 303 319 324 323 322 322 322 323 322 323 324 324 325 326 326 323 326 326 325
326 325 326 326 327 327 328 326 327 327 327 328 328 328 330 329 332 332 331 333 331 329 327 325 326 323 324 325 324 324 328 329 327 327 327 324 319 313 298 302 306 306 300 295 295 296 299 301 308 312 311 305 304 300 296 295 295 294 292 292 292 292 294 295 296 308 324 323 322 321 321 322 322 321 320 320 322 324 324 325 325 326 326 326 325
Wind_Speed
4 4 4 4 4 4 4 4 5 4 4 4 4 4 5 5 4 5 6 5 5 4 4 3 5 6 5 5 7 7 7 8 9 9 9 9 10 10 10 8 9 10 10 10 9 9 10 10 9 11 10 9 9 10 12 11 5 6 10 9 13 11 9 10 10 8 7 8 8 9 10 11 12 9 9 9 9 8 8 7 7 7 7 7 7
3 4 5 5 5 5 5 4 6 6 5 5 6 5 4 4 4 4 5 5 6 5 4 4 5 7 5 5 5 7 5 6 6 5 5 5 6 7 7 8 8 8 8 8 9 10 9 9 9 9 9 9 9 8 6 6 7 9 9 10 8 11 11 10 8 7 8 10 8 7 8 9 11 10 11 11 11 10 10 9 8 9 9 8 8
4 5 6 6 6 6 5 5 5 5 5 5 4 4 4 3 3 3 3 4 3 3 3 4 3 3 6 6 5 4 5 6 6 6 6 7 8 8 8 8 8 8 8 9 8 8 9 10 10 9 10 8 9 10 10 11 11 12 11 10 6 8 12 9 9 11 9 8 7 6 8 8 6 6 8 11 11 12 11 12 11 11 12 11 8
6 6 7 7 7 6 5 5 5 4 4 4 4 4 2 2 1 1 2 2 2 2 3 3 3 4 6 6 5 5 5 5 6 7 7 7 7 6 7 8 8 8 8 9 9 9 8 9 10 9 9 7 8 10 10 12 11 10 10 9 11 11 11 11 10 11 10 6 7 8 7 7 9 8 7 7 10 12 12 12 11 11 11 11 9
7 7 7 7 7 7 7 5 4 5 4 3 3 2 2 4 4 5 4 4 3 3 4 3 4 4 4 5 5 5 6 5 6 6 5 5 6 5 6 8 9 9 10 10 10 8 9 9 8 9 8 6 6 8 10 11 12 10 11 10 14 13 13 11 9 12 12 10 8 4 6 8 10 9 6 7 7 8 10 11 11 11 11 10 10
6 8 9 8 8 7 5 5 6 5 4 3 3 4 4 5 6 6 4 4 4 4 4 4 3 3 4 4 5 5 5 5 5 6 6 6 7 8 9 9 9 9 9 10 10 10 9 9 9 9 8 6 7 8 8 7 9 13 11 9 10 11 10 8 10 6 9 11 8 9 8 8 6 3 4 5 3 5 5 7 9 11 10 10 9
4 4 6 8 7 7 6 6 6 6 4 3 3 4 5 5 6 5 5 4 4 4 4 3 3 3 3 2 2 3 3 4 4 5 6 7 8 9 9 10 10 10 10 9 10 10 9 9 9 9 8 6 8 9 10 11 11 11 9 3 4 8 11 11 10 6 7 9 13 15 12 12 10 8 11 8 10 5 6 7 8 9 9 10 10
8 8 8 7 7 7 8 6 5 5 4 4 4 4 6 6 7 6 5 5 4 4 4 3 3 3 4 3 2 2 3 4 5 5 6 7 8 9 8 9 10 10 10 10 10 10 8 8 9 9 8 8 7 8 9 9 9 7 6 10 12 11 12 10 13 12 10 10 12 14 16 16 15 13 11 11 9 11 9 6 7 8 8 8 9
9 9 9 8 8 7 6 6 4 5 4 5 6 6 6 6 6 6 5 5 5 5 4 3 3 3 2 1 0 1 2 3 4 5 6 6 8 8 8 9 9 10 9 9 9 9 9 8 9 9 8 8 7 6 9 9 9 9 10 10 10 8 6 9 9 10 10 10 10 11 11 9 9 9 10 9 11 11 13 12 10 8 9 9 8
8 9 8 8 6 6 4 4 5 4 4 5 6 6 5 5 6 5 4 3 4 4 4 3 3 2 2 1 1 1 2 3 4 5 5 4 6 7 7 7 7 7 8 9 8 9 8 8 7 8 9 8 6 8 8 7 7 9 10 10 11 11 10 10 12 10 10 10 10 8 6 7 8 8 11 11 10 12 13 12 10 9 9 8 7
9 8 6 6 5 5 5 7 6 5 5 7 7 6 5 5 5 6 4 3 3 4 3 3 2 1 1 1 1 1 2 3 4 5 5 5 5 6 7 8 7 7 7 7 7 7 7 7 6 7 7 6 5 6 8 8 7 8 8 8 9 11 11 12 12 9 6 8 11 9 6 9 8 8 11 10 12 10 10 13 13 13 12 10 8
10 8 8 7 6 5 5 6 6 6 6 7 7 6 6 5 6 7 6 5 4 4 4 3 2 2 1 0 1 2 2 2 4 5 6 7 7 7 7 7 7 7 7 7 6 7 7 6 6 6 6 6 6 6 7 7 7 7 6 6 7 7 9 9 8 9 11 10 15 10 8 10 11 10 13 11 11 11 11 12 11 9 10 10 8
11 9 8 7 8 8 8 7 6 6 7 7 6 6 5 5 5 6 5 4 3 3 3 3 2 1 1 1 2 2 3 4 4 5 6 6 6 7 8 7 7 8 7 8 7 8 6 6 6 5 5 5 6 6 6 7 6 6 6 8 8 9 7 10 11 13 14 15 14 10 9 11 14 14 13 13 11 10 10 12 13 11 12 10 8
11 9 8 8 7 7 6 6 6 5 6 6 6 5 4 4 4 4 5 3 3 2 2 2 2 1 1 1 1 2 3 3 4 4 5 5 6 7 7 8 8 9 9 9 8 9 7 7 6 6 5 6 6 6 6 6 7 6 6 7 9 7 8 11 12 14 14 16 13 10 9 11 13 11 15 12 12 12 11 13 11 10 12 12 9
9 9 9 9 8 8 7 6 5 6 7 6 5 5 5 5 5 5 5 4 3 2 2 1 0 0 0 1 1 1 3 3 3 3 4 6 6 7 7 7 8 8 8 8 9 9 9 7 7 6 6 6 5 6 5 5 6 6 6 7 7 7 9 9 10 14 13 15 15 13 12 13 12 13 10 11 11 12 13 11 11 13 12 12 13
11 10 9 8 8 7 6 6 6 6 7 6 6 6 6 5 4 4 4 4 3 3 2 1 1 1 1 3 2 2 3 3 3 1 2 4 5 6 7 7 7 7 8 8 9 8 8 9 8 7 6 5 5 5 5 5 5 6 6 7 9 7 8 11 12 13 15 16 16 13 10 12 13 13 12 11 12 12 12 12 12 13 13 14 11
11 11 10 10 8 7 7 7 6 6 7 7 7 7 6 5 5 5 4 4 3 3 2 1 1 2 2 2 3 3 4 4 5 5 4 3 4 4 4 6 6 6 7 7 8 8 8 8 8 7 6 5 5 5 5 5 5 6 6 7 9 9 8 9 10 10 12 14 11 12 12 11 13 12 12 14 11 11 12 11 11 14 14 14 13
12 10 9 9 9 9 8 7 8 8 8 8 7 6 4 4 5 5 4 4 4 3 3 2 1 2 2 3 3 3 4 4 4 5 5 4 4 4 4 4 5 5 6 6 7 8 7 7 6 6 6 5 6 6 6 6 6 6 7 8 8 9 10 9 9 10 12 12 12 10 12 11 13 13 11 12 11 10 12 12 12 12 11 12 14
10 11 9 9 8 9 8 8 7 7 6 6 5 5 5 4 4 4 4 3 2 2 2 1 1 1 2 3 4 3 3 4 4 4 4 5 6 5 5 5 5 5 6 6 6 7 7 7 6 6 6 7 7 7 7 7 8 8 8 8 8 9 9 10 10 10 11 12 13 14 13 13 14 13 12 12 13 11 12 12 12 11 10 10 12
11 11 11 10 10 10 10 9 9 8 7 6 6 6 7 6 5 5 4 3 3 3 2 3 2 2 3 3 4 3 4 4 4 4 4 5 6 6 6 6 5 5 5 6 6 7 7 7 7 7 8 8 8 8 8 9 9 9 9 9 9 11 12 12 12 11 10 12 14 15 15 13 13 10 11 13 13 13 13 13 12 12 13 13 11
11 11 11 10 10 9 8 7 6 6 5 6 6 7 7 5 6 6 6 5 4 3 3 3 2 3 3 4 4 3 4 4 4 4 5 5 5 5 5 5 5 5 5 5 6 7 6 6 7 8 8 9 9 10 9 9 9 10 10 11 11 11 12 13 12 13 13 13 15 16 16 16 15 13 11 13 14 14 13 13 12 12 13 11 11
11 11 11 11 9 8 7 5 4 5 7 7 6 6 6 7 6 6 5 5 5 3 3 3 3 3 4 4 4 4 4 4 5 4 5 5 4 5 5 5 6 6 5 6 6 6 5 6 7 8 8 8 8 9 9 9 10 10 11 8 9 11 12 13 13 14 14 12 12 14 14 17 17 17 14 15 15 14 13 14 13 13 13 13 11
12 12 11 10 9 8 7 8 8 8 7 6 5 6 6 7 7 6 6 6 6 4 3 2 3 4 5 4 4 5 4 5 5 4 5 5 5 5 4 5 6 6 5 5 6 6 6 6 6 7 7 8 7 8 8 9 10 11 10 10 10 11 12 13 14 15 15 14 14 15 16 16 15 18 17 16 16 15 14 14 14 13 15 14 13
9 10 8 7 7 6 5 6 6 6 7 7 6 6 5 6 7 6 7 7 6 5 4 3 4 5 5 5 5 4 5 5 5 4 6 6 6 5 4 5 6 6 6 6 5 6 6 6 6 6 6 7 8 8 8 8 9 10 11 11 11 12 12 12 14 15 14 15 16 16 15 16 15 17 16 14 15 16 15 13 14 14 14 16 14
11 10 8 7 7 7 7 7 7 7 7 6 6 6 6 7 7 7 7 7 5 5 4 4 5 7 6 5 5 5 5 6 6 5 7 7 7 6 5 6 6 6 6 6 5 5 5 6 6 6 6 6 7 8 9 10 10 10 11 11 12 13 13 12 13 13 14 14 16 16 16 16 13 16 18 15 14 15 15 13 14 15 15 14 13
11 11 9 10 9 7 6 7 6 7 7 6 6 7 7 7 7 7 7 6 6 5 5 5 6 6 6 7 6 5 6 6 6 6 6 6 6 6 6 6 6 7 7 6 6 5 5 6 6 6 6 6 7 7 8 9 10 10 10 11 13 14 16 16 16 15 14 14 14 15 15 15 14 15 16 16 15 16 14 15 18 16 15 14 15
13 12 9 8 7 9 8 8 8 8 7 6 7 7 7 6 7 7 6 6 5 5 5 5 6 6 6 7 7 6 5 5 5 5 5 5 6 6 7 7 6 7 8 8 7 7 6 6 7 7 7 7 7 7 7 8 8 9 11 11 12 15 17 17 17 16 16 16 16 15 14 15 15 15 17 17 17 16 14 15 16 16 17 15 14
8 9 11 11 10 8 8 9 8 8 7 6 6 6 6 6 7 7 6 6 5 5 6 6 6 6 6 7 7 6 5 5 5 5 5 5 5 6 6 6 6 7 8 7 7 7 7 6 7 7 7 7 7 7 7 6 7 9 10 10 11 13 14 17 18 17 17 16 16 17 17 16 16 16 17 18 16 13 12 15 18 15 14 14 13
13 11 11 11 11 10 9 9 9 8 8 8 6 6 5 5 6 5 6 7 6 5 6 6 6 6 7 7 5 5 4 5 5 5 5 5 5 6 6 6 6 7 6 7 7 7 8 8 7 7 7 6 6 5 4 5 6 9 10 11 13 15 17 16 17 19 18 17 17 16 16 16 16 17 18 16 15 13 13 15 13 12 14 14 13
14 13 12 11 11 10 10 9 9 9 9 8 7 7 7 7 8 7 7 7 4 5 6 6 6 7 6 6 5 5 5 5 5 5 5 5 6 6 6 7 7 7 7 6 7 6 7 8 8 7 6 5 4 4 4 8 7 7 10 11 13 14 14 15 16 16 16 15 16 17 16 19 17 16 16 18 18 18 16 15 12 12 14 12 14
13 13 12 10 10 9 9 9 10 10 10 8 7 7 7 8 9 9 8 6 5 5 6 6 7 7 6 5 5 5 4 5 5 5 5 5 6 6 6 6 6 6 7 6 6 7 7 7 7 7 7 5 4 4 6 7 8 8 9 11 12 13 14 15 13 13 14 15 16 16 15 15 16 16 17 18 18 18 18 19 21 20 16 16 17
14 13 11 10 10 10 11 11 11 10 9 8 8 8 7 9 8 8 7 5 5 5 6 6 6 6 6 5 5 4 5 5 5 5 5 5 6 6 6 6 6 6 6 6 7 7 7 6 6 6 6 5 5 4 7 7 7 8 8 8 8 10 12 13 11 13 13 13 14 14 12 11 11 13 15 15 17 20 21 21 23 23 23 20 19
13 13 13 12 13 12 12 11 10 9 9 10 9 7 9 9 8 7 4 5 6 6 5 6 6 6 6 5 4 4 5 6 6 5 5 5 6 6 6 5 6 6 6 6 7 7 6 6 6 6 6 6 6 4 7 7 6 7 8 8 7 9 11 13 13 13 13 12 12 12 11 9 8 12 14 17 16 15 19 24 23 24 23 23 20
13 13 14 12 9 8 10 11 10 10 10 8 8 9 8 7 6 4 5 5 5 5 5 6 6 6 6 5 4 5 5 6 5 4 5 6 5 5 5 5 5 5 6 6 7 7 6 6 5 5 6 6 6 4 7 6 6 7 7 8 7 8 9 11 12 12 10 10 11 12 11 11 12 12 11 13 15 17 15 15 17 17 17 20 21
13 12 10 10 10 9 8 8 9 9 8 7 7 8 7 6 5 5 5 5 5 5 6 6 6 7 6 5 5 5 5 5 4 4 5 5 5 5 5 4 4 5 6 6 6 6 6 6 6 5 5 6 6 4 6 6 5 7 7 8 7 7 7 9 9 9 10 10 11 11 11 12 13 13 10 12 13 13 14 15 15 17 18 22 21
12 13 11 10 10 11 12 12 9 7 8 9 9 8 8 8 6 6 5 5 5 5 6 6 7 7 7 6 6 5 5 4 4 4 5 5 5 5 5 4 5 5 5 5 5 5 6 7 6 6 5 6 6 5 6 5 6 7 7 7 8 7 7 8 8 8 8 7 8 9 9 11 11 13 14 16 16 12 11 13 14 13 16 21 22
11 12 12 11 11 10 10 6 6 8 9 9 9 8 9 7 6 6 5 5 5 6 7 7 7 7 7 6 5 5 4 4 4 5 5 5 5 5 4 3 4 5 6 6 5 5 5 6 6 6 6 6 7 4 5 5 6 5 5 7 7 6 6 7 8 8 7 7 8 9 9 9 12 14 16 19 18 18 10 12 14 16 17 18 19
7 6 5 5 6 6 5 7 9 10 11 8 8 8 8 7 7 6 6 6 6 7 7 7 7 7 6 5 5 4 5 5 5 5 6 5 4 4 4 3 4 5 6 6 6 6 6 6 6 6 5 6 7 5 5 6 5 5 4 6 7 7 7 7 7 7 7 7 8 14 14 10 11 13 18 19 19 18 11 10 13 15 17 16 15
9 10 10 9 8 8 8 8 9 11 11 10 9 9 8 8 7 7 7 6 7 7 7 7 7 6 6 5 5 5 5 5 5 5 5 5 4 4 4 3 4 4 5 5 5 6 6 6 6 5 4 6 6 6 6 8 6 5 4 6 7 7 8 7 7 8 6 6 7 8 12 12 11 14 18 18 18 14 11 9 9 11 15 17 16
7 7 7 6 5 5 7 10 11 13 9 10 9 9 9 8 7 6 7 7 8 8 6 4 5 5 5 5 5 5 6 6 6 5 4 4 3 3 3 3 4 4 4 5 5 5 7 7 6 5 4 4 5 6 5 6 6 5 5 5 6 7 7 8 8 8 8 8 7 7 9 11 15 17 17 17 18 17 12 9 8 8 9 14 14
9 8 7 6 7 8 10 12 11 7 7 8 8 9 9 8 6 6 8 8 7 4 2 4 4 5 5 6 6 6 6 6 5 4 3 3 3 3 3 3 4 3 4 5 5 6 6 7 6 5 4 4 3 5 5 4 7 6 4 4 6 7 7 8 9 9 7 8 8 8 7 10 15 17 17 17 15 16 15 11 11 9 7 10 11
5 5 7 7 8 9 10 10 7 5 6 7 8 9 8 7 6 8 10 7 4 2 3 4 5 5 5 6 6 6 5 5 4 4 4 4 3 2 2 3 3 3 5 5 5 5 6 6 6 6 3 4 3 3 5 4 5 6 6 6 5 7 6 6 8 9 8 6 7 8 7 10 15 17 17 17 16 17 18 10 13 17 17 14 9
8 8 10 8 8 9 11 9 4 6 7 7 9 9 8 7 8 10 7 4 2 3 4 5 5 5 5 5 5 6 5 4 4 4 4 4 2 2 2 2 2 3 4 6 6 6 6 7 7 5 4 3 3 3 2 4 5 6 7 7 6 7 8 5 6 8 9 8 7 7 8 11 15 17 17 17 16 17 13 14 20 19 19 19 11
8 7 5 7 8 8 6 2 3 4 6 8 9 9 7 7 10 7 4 3 3 5 5 5 5 5 5 5 5 5 4 3 3 3 4 3 3 2 2 1 2 3 4 5 6 5 6 7 7 7 6 4 3 3 0 2 5 7 8 7 9 9 7 6 6 7 7 8 8 8 10 15 15 15 16 16 15 13 12 16 18 19 18 15 8
3 3 2 2 5 6 4 2 2 5 5 7 8 9 8 9 8 4 4 5 6 6 5 4 4 4 4 4 4 5 4 3 5 5 4 3 3 2 2 1 2 3 3 5 5 6 6 6 7 7 6 5 4 4 3 2 4 6 7 8 10 10 9 9 7 7 7 8 11 14 14 14 14 14 14 13 10 11 15 15 17 18 15 10 10
3 3 2 3 4 5 5 6 4 6 6 6 8 8 9 9 3 4 5 6 6 5 4 4 3 4 4 4 5 5 5 5 4 4 4 3 3 2 2 2 2 2 3 3 5 5 6 6 6 7 6 6 5 3 4 5 7 8 8 10 11 9 9 10 9 7 9 12 12 13 13 11 10 10 8 6 6 8 11 12 14 14 10 10 10
3 2 1 3 4 5 7 7 7 7 7 7 7 7 6 3 4 4 5 5 4 4 4 3 3 3 3 4 6 6 4 4 6 5 4 3 3 2 1 1 1 2 2 3 4 4 5 5 6 6 7 6 6 4 5 6 7 8 7 9 9 8 8 9 6 5 8 7 9 9 7 9 7 10 8 7 6 8 7 7 6 7 8 8 9
3 3 4 5 6 7 8 8 7 5 5 5 5 5 6 6 5 5 4 3 4 5 4 3 2 2 3 3 4 6 5 5 7 6 5 4 3 2 1 1 1 2 2 2 3 3 4 5 5 6 7 7 6 6 6 9 10 10 10 9 7 7 6 6 7 7 8 9 7 7 6 4 4 5 5 5 5 5 6 6 6 7 7 7 9
2 3 5 5 5 6 6 5 3 2 3 4 4 5 4 5 5 4 3 5 4 4 3 2 1 1 2 3 3 3 5 7 6 5 3 1 3 1 4 5 6 4 4 2 2 2 4 4 4 5 7 7 7 8 9 11 10 10 8 7 7 7 7 7 7 10 10 8 6 5 6 7 6 6 6 6 6 6 6 6 8 8 7 8 8
2 2 3 3 4 4 4 3 1 1 2 2 3 3 3 3 3 4 4 4 3 2 2 2 2 1 2 1 2 4 3 4 6 5 4 5 12 13 7 5 6 8 9 8 7 4 3 4 4 5 6 5 6 9 15 15 12 9 9 10 10 12 13 11 13 16 9 6 6 6 6 7 7 7 7 7 7 6 7 7 7 6 6 7 7
0 0 1 2 1 1 1 1 1 2 2 2 2 3 3 2 2 3 4 3 3 3 2 2 1 1 0 1 2 3 3 3 4 4 3 4 7 10 15 15 13 9 8 6 4 3 1 4 4 4 3 3 5 10 12 12 11 9 6 6 8 10 12 12 10 6 3 4 7 7 7 7 8 7 7 7 6 6 6 6 7 6 6 7 6
Wind_Direction
90 129 136 146 153 156 163 166 169 165 170 180 186 197 204 210 205 218 227 221 224 205 211 211 239 250 263 259 263 272 265 261 263 266 264 263 263 266 268 270 273 272 272 268 256 245 244 249 245 244 241 237 236 240 239 236 202 191 228 233 243 236 228 233 240 239 244 248 244 252 258 254 252 239 242 244 241 245 245 238 236 238 231 224 221
146 149 148 150 158 160 166 173 174 177 182 183 195 197 196 203 220 229 237 231 230 225 194 195 243 255 273 272 254 267 265 268 266 256 257 263 259 254 254 264 265 265 265 263 262 258 253 245 246 249 244 238 236 229 236 235 210 210 222 236 228 247 246 228 225 213 233 243 251 252 257 252 246 235 236 240 242 243 242 239 238 237 237 232 223
168 160 160 164 157 164 172 176 182 195 178 188 188 186 191 204 219 239 237 238 223 198 182 216 189 167 238 260 254 250 249 264 274 281 278 271 270 269 272 273 270 267 266 267 265 261 258 256 253 248 247 238 224 225 230 232 224 225 222 222 224 237 248 237 217 204 236 229 238 265 261 270 227 230 242 239 238 240 237 239 237 237 238 236 231
176 173 172 172 171 172 173 178 180 180 176 177 188 195 176 187 170 174 197 192 145 159 185 184 198 193 212 241 254 260 291 293 274 275 274 269 266 266 274 270 267 271 270 270 272 271 265 259 262 262 256 236 217 225 227 235 233 230 225 209 209 222 225 230 215 211 228 218 225 227 257 264 271 252 253 238 229 236 236 238 234 235 234 232 231
167 168 167 171 181 186 188 187 181 191 190 172 157 137 124 103 107 114 123 130 135 142 155 157 158 166 194 225 253 275 283 281 286 274 264 267 274 276 287 291 290 290 288 283 274 264 269 273 268 268 269 231 208 225 235 235 236 232 234 209 210 221 231 232 213 210 212 208 217 214 236 241 244 256 266 264 229 230 231 233 232 231 234 225 222
177 173 172 176 179 173 170 178 187 188 174 139 130 121 111 124 139 146 140 140 142 139 145 153 158 171 185 199 217 232 261 270 282 304 308 310 310 316 308 304 303 298 293 289 287 286 287 286 283 277 267 244 215 217 227 233 240 241 228 215 215 223 240 244 247 191 211 217 218 217 230 255 258 243 240 259 167 239 237 234 232 228 226 224 223
182 172 172 174 172 169 172 177 175 172 137 116 120 126 138 147 155 150 134 127 129 133 150 152 156 169 184 208 239 245 266 272 287 296 300 300 305 305 307 308 307 305 301 296 291 288 288 288 287 285 280 250 228 232 232 234 237 238 231 208 226 239 241 242 235 205 199 220 225 233 237 242 249 250 252 273 269 236 238 245 238 232 228 224 225
179 183 189 188 178 182 177 169 162 145 131 139 141 137 148 149 143 139 137 135 136 144 155 164 155 161 168 181 203 235 263 285 292 298 300 304 305 307 309 307 307 305 303 299 295 292 289 288 287 285 277 263 242 239 239 243 247 243 217 201 210 211 224 231 231 227 210 227 224 230 235 241 246 252 250 250 271 274 265 248 256 257 244 236 235
191 186 192 189 180 179 170 161 135 134 142 153 145 145 146 143 136 132 129 132 131 129 127 126 125 125 121 128 202 302 306 308 310 306 307 309 306 308 305 307 308 307 302 298 295 293 293 293 294 288 278 266 247 243 247 248 249 246 225 221 222 224 214 220 221 224 223 231 233 224 227 232 234 237 256 244 248 259 263 262 264 259 254 246 235
205 204 194 186 175 169 160 127 151 151 137 136 140 146 150 139 136 132 135 139 128 121 117 115 118 123 103 83 358 342 335 315 311 303 300 307 304 307 310 306 308 311 314 307 298 294 295 296 287 278 280 286 271 261 254 255 253 243 244 224 224 213 222 220 227 232 238 244 238 228 206 229 234 229 231 230 237 242 256 264 268 266 258 250 234
201 203 196 185 167 155 153 169 156 152 149 150 152 161 156 148 145 140 150 140 133 131 128 121 125 111 90 54 322 313 311 303 308 307 313 317 316 316 317 317 315 318 321 320 313 311 314 311 297 289 290 286 273 269 261 257 243 237 245 224 223 210 228 227 229 236 247 240 246 245 210 225 231 236 233 223 231 234 238 252 258 257 260 267 243
197 198 194 189 173 173 169 169 168 158 153 156 155 154 158 157 157 150 160 158 158 158 157 150 153 151 153 250 307 302 292 289 304 311 318 317 315 312 314 310 313 318 319 321 318 325 326 317 311 304 300 297 286 282 275 271 270 253 243 237 237 197 222 228 227 222 235 239 240 229 221 216 232 233 245 226 221 231 241 252 255 258 256 253 258
196 196 192 191 191 182 181 170 162 165 167 163 158 159 155 165 173 153 137 141 130 131 112 112 110 98 344 312 301 300 296 297 302 303 311 311 313 315 316 315 317 317 321 320 323 328 325 317 318 310 303 298 294 282 277 264 253 248 248 246 234 229 203 213 230 231 227 237 241 232 222 227 229 235 237 236 233 236 238 254 256 254 262 264 255
196 192 196 194 191 189 180 172 174 169 165 165 163 160 164 176 180 155 138 139 128 129 130 130 139 167 210 255 299 303 296 299 300 304 312 318 319 317 317 318 315 314 315 316 319 322 320 318 312 308 301 295 296 289 282 272 259 249 242 241 252 241 221 212 232 238 236 236 238 239 218 229 235 230 239 231 232 237 237 244 253 251 251 259 258
189 191 197 197 193 192 184 178 178 176 172 172 171 174 177 180 173 156 142 139 142 147 144 140 162 253 323 296 282 281 282 281 281 292 319 323 320 315 313 314 312 312 312 312 315 314 316 315 316 311 311 309 303 299 299 288 277 271 266 258 258 244 228 220 229 236 239 238 240 241 240 235 238 243 230 227 233 238 242 240 241 252 252 249 255
190 193 196 196 192 189 185 181 181 177 174 181 183 181 190 185 169 156 150 149 168 165 163 185 254 313 330 325 321 301 292 295 292 300 316 316 313 309 309 310 311 310 309 308 310 312 313 313 314 314 317 315 314 312 305 299 294 284 275 269 263 259 249 232 235 235 238 240 243 244 241 244 239 238 242 240 237 237 238 239 240 247 253 260 253
184 190 191 189 188 189 188 183 180 179 182 191 192 190 194 179 175 172 169 175 187 186 187 202 250 290 315 309 305 303 306 315 320 324 324 308 296 293 297 313 313 311 310 309 309 312 312 314 314 318 319 319 316 315 312 309 307 298 287 282 279 274 262 258 247 241 245 247 243 235 237 241 247 238 237 244 239 239 239 236 237 245 248 253 256
183 182 184 186 188 187 185 182 183 185 191 194 194 191 192 191 190 187 184 195 187 193 200 206 255 279 292 292 291 293 298 305 310 310 313 305 290 275 279 285 297 309 310 307 308 309 310 309 308 309 313 313 317 318 321 320 313 305 294 287 283 281 277 272 258 251 251 250 244 233 239 236 241 237 231 233 232 232 235 234 237 239 237 240 248
175 184 184 188 190 188 182 184 182 186 195 193 188 189 194 196 192 206 208 204 201 198 200 206 231 267 276 279 285 285 281 290 292 294 295 294 296 293 289 290 291 298 305 307 308 307 306 306 299 303 310 315 320 322 321 318 317 308 304 296 289 280 274 272 266 259 257 252 248 245 242 241 246 244 240 234 229 225 229 232 233 231 229 221 238
181 182 185 187 191 191 186 183 182 189 195 193 194 198 204 196 193 207 215 215 216 225 213 239 218 230 253 263 265 270 277 280 282 284 284 286 291 291 289 289 289 297 295 306 303 303 306 306 307 312 314 313 316 317 317 317 316 312 307 302 295 292 286 277 273 265 262 260 255 251 245 241 235 234 234 236 232 223 223 228 229 229 229 226 221
182 181 182 185 186 185 180 179 177 180 187 193 197 205 207 193 201 213 217 220 228 233 231 243 236 239 250 266 275 273 276 272 271 268 274 285 289 289 288 292 295 283 291 294 299 300 301 303 305 306 307 311 311 314 318 319 319 318 314 308 306 300 292 290 283 277 269 264 262 257 254 249 244 233 230 233 234 228 223 226 229 230 229 218 210
179 180 183 186 181 177 170 166 164 183 201 198 194 206 208 209 216 218 227 231 241 231 236 248 249 263 271 278 284 285 282 275 270 271 274 282 291 292 293 292 287 289 281 287 285 291 293 301 302 303 303 305 310 313 316 318 321 321 321 321 314 308 301 295 291 284 281 272 263 261 251 254 248 242 236 233 231 229 227 229 226 227 230 230 210
182 182 184 181 175 174 173 175 179 193 196 189 191 210 214 216 221 224 229 236 242 245 237 237 258 266 268 269 276 283 286 281 280 283 288 293 292 291 290 291 293 295 291 282 285 287 291 297 297 297 301 306 308 311 316 315 318 320 322 321 318 316 312 308 301 293 284 275 264 258 257 253 252 247 238 235 233 230 230 230 229 227 234 231 225
179 183 178 164 164 154 161 173 181 192 196 193 199 208 215 223 229 230 234 239 242 244 245 241 252 259 262 267 276 284 286 285 286 288 288 292 295 288 284 283 286 289 289 286 283 291 295 292 288 289 299 312 312 319 317 315 312 316 319 317 317 313 309 304 301 299 292 282 273 267 262 257 249 250 241 231 227 231 231 230 231 232 234 234 228
179 178 169 159 163 170 180 179 183 192 195 189 197 208 216 223 226 233 240 243 242 244 249 255 253 258 261 266 278 282 281 283 283 288 291 293 293 297 291 285 285 284 286 287 285 282 282 282 281 288 299 302 310 313 313 310 310 312 314 315 316 313 305 296 288 285 285 279 275 273 267 262 248 244 243 234 224 220 227 226 231 235 233 232 230
175 172 167 174 177 175 176 181 188 195 194 188 201 213 220 225 229 232 240 238 241 248 255 259 258 255 260 268 274 274 273 277 283 286 289 295 292 280 280 279 276 284 286 282 280 281 274 276 276 276 275 277 289 299 303 307 306 308 311 315 316 311 307 299 289 283 280 279 274 271 266 259 246 244 244 238 233 224 221 225 232 230 230 229 230
178 175 170 162 169 183 182 186 194 196 189 192 204 215 221 225 233 231 230 240 242 244 250 253 255 253 257 266 270 268 273 279 276 278 281 281 280 286 289 290 289 283 284 286 284 280 275 274 277 277 278 282 285 290 299 301 301 305 312 309 308 309 305 303 300 294 289 287 280 272 262 254 252 243 241 239 233 226 222 226 228 228 229 229 229
171 171 172 177 182 178 184 190 196 198 188 197 211 218 221 224 233 230 227 230 233 235 244 245 248 249 251 260 264 267 270 269 272 270 271 273 277 274 274 277 277 276 278 281 287 287 284 276 275 272 275 276 277 285 297 303 301 305 311 311 306 302 302 304 303 301 296 291 286 280 271 261 253 246 241 242 237 232 229 230 232 225 226 225 224
183 184 179 180 179 183 186 190 199 194 193 203 209 217 220 229 235 231 229 229 226 230 239 244 244 247 252 257 264 271 265 266 266 267 267 271 274 275 278 278 275 275 279 283 287 286 286 283 278 275 270 260 268 279 290 297 301 304 311 315 315 313 310 308 307 307 303 296 288 278 273 264 256 247 239 242 242 235 233 230 220 214 221 221 220
184 184 186 187 184 180 188 191 197 196 199 202 205 212 217 221 226 223 223 225 209 224 236 243 246 249 253 258 263 265 269 272 270 270 275 280 283 285 286 285 285 287 287 285 286 283 281 284 288 286 275 262 260 260 251 262 276 294 311 322 321 314 308 310 312 311 312 309 302 287 272 266 261 253 238 232 232 231 228 233 234 221 222 223 225
185 182 186 184 180 186 190 195 199 199 200 202 203 210 214 224 227 222 217 215 205 226 233 239 247 249 252 257 258 264 273 275 275 278 280 284 288 290 287 286 289 289 289 288 283 283 285 286 286 285 282 272 261 263 247 264 283 289 305 325 320 314 313 315 314 316 320 320 316 299 276 263 253 246 243 235 231 225 224 225 229 237 235 226 221
186 185 179 178 184 190 195 200 203 201 199 200 203 207 210 220 221 218 217 201 204 223 236 240 246 252 252 253 258 270 276 277 276 277 285 291 292 290 288 289 292 293 296 293 286 285 288 289 287 283 279 273 270 246 245 267 290 296 300 315 309 314 321 322 320 324 323 321 322 323 306 271 261 261 261 244 228 224 224 223 226 228 231 232 231
182 182 183 185 190 193 196 202 202 199 199 205 199 199 212 216 214 213 195 203 216 225 231 243 247 251 257 253 253 264 272 277 277 282 289 293 292 289 290 293 295 298 293 288 291 292 294 295 287 286 282 276 270 230 252 270 282 287 304 315 303 310 323 325 326 329 327 324 325 329 337 328 308 283 261 255 258 241 218 224 224 226 229 229 230
188 189 187 186 187 194 201 204 201 203 206 202 197 204 216 215 214 191 196 208 216 225 231 244 249 252 253 254 255 257 265 272 279 284 287 289 287 287 291 288 287 287 286 290 295 297 298 296 293 289 287 281 276 232 241 262 284 294 302 314 308 315 314 314 318 326 318 322 329 337 336 333 329 325 312 297 276 254 243 224 221 225 227 227 227
189 188 187 186 191 195 200 205 211 207 201 196 202 209 214 213 204 200 198 204 215 230 234 238 246 251 250 250 249 250 258 269 275 277 282 282 283 287 287 290 294 295 296 297 299 302 299 296 296 294 292 286 274 233 251 269 273 273 292 298 306 304 302 302 307 308 318 320 336 336 334 330 328 326 322 326 316 300 267 239 222 217 220 229 226
191 186 187 186 191 197 200 209 203 192 202 204 208 202 205 213 197 204 198 201 214 226 237 236 240 247 249 248 246 250 254 260 268 273 274 280 283 283 291 303 302 297 293 287 280 273 281 289 294 295 297 293 295 208 240 258 272 280 298 307 312 304 295 300 300 308 310 319 319 314 325 329 326 328 330 324 316 302 279 262 241 226 222 226 229
190 186 188 192 196 198 204 195 185 199 201 206 204 195 201 205 200 208 199 204 209 225 235 232 237 245 248 248 243 247 253 256 259 267 273 279 286 296 302 310 301 300 299 294 292 290 288 286 289 293 295 299 303 265 215 235 250 265 296 306 301 294 292 289 300 302 310 311 308 313 325 327 329 333 332 330 326 321 270 253 250 243 237 225 225
172 182 192 188 198 203 203 203 210 210 210 204 195 194 196 200 208 208 206 209 210 230 233 231 235 241 245 247 242 239 245 249 250 259 270 279 289 287 293 294 293 301 296 301 302 296 291 288 286 289 301 306 303 285 243 251 254 253 273 296 300 294 289 288 293 298 301 304 305 316 319 323 326 327 330 331 334 335 300 255 243 245 241 239 229
191 192 196 200 196 196 201 205 213 220 210 199 192 194 198 203 210 214 215 215 222 232 231 230 237 245 250 250 245 233 238 245 249 258 261 275 287 293 293 285 283 279 286 293 297 295 296 292 293 294 275 277 299 294 257 254 248 252 275 296 296 292 291 290 297 303 296 293 302 308 312 318 324 323 325 331 334 342 331 332 303 251 241 239 234
195 207 210 198 173 178 206 215 216 221 202 184 187 196 206 203 209 212 218 224 230 234 231 236 251 255 252 249 240 234 237 240 246 252 251 258 269 274 281 294 288 286 302 308 299 296 294 299 303 292 302 295 302 303 286 260 260 269 259 288 296 292 294 299 305 308 310 307 306 310 310 315 330 326 325 332 333 343 343 330 349 333 283 248 233
194 204 193 197 203 208 214 214 221 208 176 178 185 195 206 205 203 209 227 231 234 224 225 246 248 248 248 246 240 232 238 240 240 246 252 258 254 264 278 278 294 306 303 300 307 309 302 300 305 306 303 305 316 318 313 291 288 285 275 271 292 292 294 298 303 308 305 310 314 312 309 317 325 324 325 327 326 342 344 343 357 337 319 305 284
217 198 193 208 212 218 231 238 226 176 179 179 185 199 206 197 201 222 229 232 220 211 227 233 236 239 245 246 244 238 233 241 234 223 232 246 233 232 254 267 285 293 300 305 310 309 306 304 307 310 313 311 315 297 311 314 315 316 313 267 270 290 299 302 302 305 306 308 310 305 307 311 317 318 320 322 331 344 349 358 347 340 344 346 317
201 212 215 209 213 222 226 230 200 180 177 181 190 203 205 197 213 227 222 207 181 206 222 226 228 233 237 246 249 244 238 224 222 218 230 246 246 245 240 245 271 294 304 312 313 315 312 313 316 318 322 327 333 323 296 324 336 351 342 329 297 286 296 284 288 304 311 311 304 301 300 306 316 314 314 321 331 343 360 353 347 349 351 351 338
222 226 222 215 232 237 241 188 169 167 181 183 194 203 202 203 223 224 180 163 180 210 215 219 223 231 239 248 253 253 241 225 218 216 224 238 248 259 275 257 291 300 311 313 317 319 317 319 324 323 321 331 342 332 177 43 351 344 334 332 331 322 305 302 296 288 300 305 306 307 306 304 306 308 310 319 326 344 353 349 351 350 354 356 357
266 289 0 263 261 274 277 254 191 188 188 197 203 207 201 215 227 176 174 190 204 209 209 210 224 243 252 260 263 256 235 200 207 206 209 220 240 241 279 273 300 311 312 315 316 319 318 317 317 317 320 330 342 336 335 29 350 329 327 343 340 331 325 323 307 307 308 305 298 294 294 298 304 305 308 308 323 340 349 350 353 353 357 9 6
268 262 261 264 265 263 259 252 214 192 198 203 207 206 208 222 181 157 185 199 205 207 216 229 243 259 268 267 265 255 223 215 233 211 207 211 236 248 262 287 306 307 314 312 314 321 322 324 321 326 326 329 331 332 347 353 350 346 343 347 337 327 327 320 296 291 298 295 296 301 300 304 309 315 319 328 335 332 333 349 358 1 6 8 9
256 239 232 241 240 247 245 239 235 200 201 208 207 211 219 201 179 184 192 198 204 214 229 235 246 267 276 270 262 257 209 159 214 221 210 206 213 226 225 253 284 310 317 318 320 326 328 334 331 332 330 329 334 352 4 358 357 347 343 340 336 334 331 325 324 334 331 322 313 310 309 301 295 306 312 313 312 324 342 358 4 5 13 13 11
226 232 225 232 228 233 238 232 233 204 190 204 198 205 209 218 222 216 207 193 216 220 224 228 242 266 277 271 265 245 214 195 200 213 222 220 229 232 188 75 18 359 321 332 337 343 340 337 334 336 335 334 342 359 13 357 342 337 329 328 324 320 332 336 323 334 324 303 299 302 303 328 353 358 343 358 2 357 352 351 353 357 13 19 16
244 239 228 235 241 245 249 248 228 143 173 186 199 207 204 202 216 212 193 205 208 201 211 224 239 240 261 252 244 235 215 211 200 197 219 273 290 162 103 83 44 24 19 5 14 6 346 338 332 353 346 342 347 352 347 333 312 304 299 313 322 326 328 315 308 312 308 290 310 336 358 356 4 2 360 355 359 2 3 359 9 3 4 17 20
264 278 272 271 273 273 271 249 186 121 165 184 185 188 192 205 191 185 187 199 190 195 195 210 197 256 311 298 250 231 208 214 216 220 194 104 50 36 36 106 97 72 60 43 37 61 18 355 7 37 31 12 351 327 313 312 304 291 275 268 276 285 285 283 290 297 283 295 333 353 3 3 357 8 7 3 354 5 10 9 10 7 11 19 21
146 266 283 283 303 299 260 204 195 193 198 191 185 177 183 184 168 176 186 177 169 171 205 217 191 262 173 307 304 268 205 188 222 221 198 145 110 59 55 82 105 109 100 103 101 117 19 0 24 45 63 176 292 314 326 332 335 328 298 284 293 298 304 296 284 296 288 5 359 0 3 5 4 6 12 6 358 359 10 17 13 13 21 19 26